Weather History for Gadsden, AL

Change the Weather History Date:

Saturday, August 17, 2013

  Actual Average Record
Temperature  
Mean Temperature 68 °F -  
Max Temperature 69 °F 86 °F 99 °F (1940)
Min Temperature 66 °F 65 °F 60 °F (2008)
Cooling Degree Days 2    
Growing Degree Days 18 (Base 50)    
Moisture  
Dew Point 62 °F    
Average Humidity 84    
Maximum Humidity 94    
Minimum Humidity 78    
Precipitation  
Precipitation 0.00 in - - ()
Sea Level Pressure  
Sea Level Pressure 30.09 in    
Wind  
Wind Speed 6 mph (East)    
Max Wind Speed 10 mph    
Max Gust Speed -    
Visibility 10 miles    
Events      
Averages and records for this station are not official NWS values.
T = Trace of Precipitation, MM = Missing Value Source: NWS Daily Summary

Daily Weather History Graph

Daily Weather History Graph

Search for Another Location

Airport:

Trip Planner

Search our weather history database for the weather conditions in past years. The results will help you decide how hot, cold, wet, or windy it might be!

Date:

Astronomy

Aug. 17, 2013 Rise Set
Actual Time 6:07 AM CDT 7:28 PM CDT
Civil Twilight 5:41 AM CDT 7:54 PM CDT
Nautical Twilight 5:09 AM CDT 8:26 PM CDT
Astronomical Twilight 4:37 AM CDT 8:58 PM CDT
Moon 4:39 PM CDT (8/17) 2:15 AM CDT (8/17)
Length of Visible Light 14h 13m
Length of Day
13h 20m
Waxing Gibbous, 84% of the Moon is Illuminated
Aug 17
Waxing Gibbous
Aug 20
Full
Aug 28
Last Quarter
Sep 5
New
Sep 12
First Quarter

Hourly Weather History & Observations

Time (CDT) Temp. Dew Point Humidity Pressure Visibility Wind Dir Wind Speed Gust Speed Precip Events Conditions
12:15 AM 66.2 °F 62.6 °F 88% 30.10 in 10.0 mi East 4.6 mph - N/A   Overcast
12:35 AM 66.2 °F 62.6 °F 88% 30.09 in 10.0 mi ENE 3.5 mph - N/A   Overcast
12:55 AM 66.2 °F 62.6 °F 88% 30.09 in 10.0 mi East 4.6 mph - N/A   Overcast
1:15 AM 68.0 °F 62.6 °F 83% 30.09 in 10.0 mi Calm Calm - N/A   Overcast
1:35 AM 68.0 °F 62.6 °F 83% 30.08 in 10.0 mi Calm Calm - N/A   Overcast
1:55 AM 66.2 °F 62.6 °F 88% 30.08 in 10.0 mi ENE 3.5 mph - N/A   Overcast
2:15 AM 66.2 °F 62.6 °F 88% 30.07 in 10.0 mi ENE 3.5 mph - N/A   Overcast
2:35 AM 66.2 °F 62.6 °F 88% 30.07 in 10.0 mi Calm Calm - N/A   Overcast
2:55 AM 66.2 °F 62.6 °F 88% 30.07 in 10.0 mi ENE 3.5 mph - N/A   Overcast
3:15 AM 66.2 °F 62.6 °F 88% 30.07 in 10.0 mi East 6.9 mph - N/A   Overcast
3:35 AM 66.2 °F 62.6 °F 88% 30.06 in 10.0 mi East 8.1 mph - N/A   Overcast
3:55 AM 66.2 °F 60.8 °F 83% 30.06 in 10.0 mi East 5.8 mph - N/A   Overcast
4:15 AM 66.2 °F 60.8 °F 83% 30.06 in 10.0 mi East 9.2 mph - N/A   Overcast
4:35 AM 66.2 °F 60.8 °F 83% 30.05 in 10.0 mi East 8.1 mph - N/A   Overcast
4:55 AM 66.2 °F 60.8 °F 83% 30.06 in 10.0 mi East 9.2 mph - N/A   Overcast
5:15 AM 66.2 °F 60.8 °F 83% 30.05 in 10.0 mi East 10.4 mph - N/A   Overcast
5:35 AM 66.2 °F 60.8 °F 83% 30.07 in 10.0 mi ENE 8.1 mph - N/A   Overcast
5:55 AM 66.2 °F 60.8 °F 83% 30.08 in 10.0 mi East 6.9 mph - N/A   Overcast
6:15 AM 66.2 °F 60.8 °F 83% 30.08 in 10.0 mi ENE 8.1 mph - N/A   Overcast
6:35 AM 66.2 °F 60.8 °F 83% 30.08 in 10.0 mi East 10.4 mph - N/A   Overcast
6:55 AM 66.2 °F 60.8 °F 83% 30.08 in 10.0 mi East 9.2 mph - N/A   Overcast
7:15 AM 66.2 °F 60.8 °F 83% 30.09 in 10.0 mi East 8.1 mph - N/A   Overcast
7:35 AM 66.2 °F 60.8 °F 83% 30.10 in 10.0 mi East 9.2 mph - N/A   Overcast
7:55 AM 66.2 °F 60.8 °F 83% 30.10 in 10.0 mi East 9.2 mph - N/A   Overcast
8:15 AM 66.2 °F 60.8 °F 83% 30.11 in 10.0 mi East 9.2 mph - N/A   Overcast
8:35 AM 66.2 °F 60.8 °F 83% 30.12 in 10.0 mi East 8.1 mph - N/A   Overcast
8:55 AM 66.2 °F 60.8 °F 83% 30.11 in 10.0 mi East 9.2 mph - N/A   Overcast
9:15 AM 66.2 °F 60.8 °F 83% 30.12 in 10.0 mi East 9.2 mph - N/A   Overcast
9:35 AM 66.2 °F 60.8 °F 83% 30.12 in 10.0 mi East 8.1 mph - N/A   Overcast
9:55 AM 66.2 °F 60.8 °F 83% 30.12 in 10.0 mi East 8.1 mph - N/A   Overcast
10:15 AM 66.2 °F 62.6 °F 88% 30.13 in 5.0 mi ENE 5.8 mph - N/A   Overcast
10:35 AM 66.2 °F 62.6 °F 88% 30.12 in 10.0 mi East 8.1 mph - N/A   Overcast
10:55 AM 66.2 °F 62.6 °F 88% 30.13 in 10.0 mi East 5.8 mph - N/A   Overcast
11:15 AM 66.2 °F 62.6 °F 88% 30.12 in 10.0 mi East 6.9 mph - N/A   Overcast
11:35 AM 68.0 °F 62.6 °F 83% 30.11 in 10.0 mi East 10.4 mph - N/A   Overcast
11:55 AM 68.0 °F 62.6 °F 83% 30.11 in 10.0 mi East 10.4 mph - N/A   Overcast
12:15 PM 69.8 °F 62.6 °F 78% 30.10 in 10.0 mi East 10.4 mph - N/A   Overcast
12:35 PM 69.8 °F 62.6 °F 78% 30.10 in 10.0 mi East 9.2 mph - N/A   Overcast
12:55 PM 69.8 °F 62.6 °F 78% 30.10 in 10.0 mi East 8.1 mph - N/A   Overcast
1:15 PM 69.8 °F 62.6 °F 78% 30.10 in 10.0 mi East 8.1 mph - N/A   Overcast
1:35 PM 69.8 °F 62.6 °F 78% 30.10 in 10.0 mi East 9.2 mph - N/A   Overcast
1:55 PM 69.8 °F 62.6 °F 78% 30.09 in 10.0 mi East 9.2 mph - N/A   Overcast
2:15 PM 69.8 °F 62.6 °F 78% 30.09 in 10.0 mi East 8.1 mph - N/A   Overcast
2:35 PM 69.8 °F 62.6 °F 78% 30.08 in 10.0 mi East 6.9 mph - N/A   Overcast
2:55 PM 69.8 °F 62.6 °F 78% 30.08 in 10.0 mi East 6.9 mph - N/A   Overcast
3:15 PM 69.8 °F 62.6 °F 78% 30.08 in 10.0 mi East 5.8 mph - N/A   Overcast
3:35 PM 69.8 °F 62.6 °F 78% 30.08 in 10.0 mi ESE 6.9 mph - N/A   Overcast
3:55 PM 69.8 °F 62.6 °F 78% 30.08 in 10.0 mi East 4.6 mph - N/A   Overcast
4:15 PM 69.8 °F 62.6 °F 78% 30.08 in 10.0 mi East 4.6 mph - N/A   Overcast
4:35 PM 69.8 °F 62.6 °F 78% 30.09 in 10.0 mi East 5.8 mph - N/A   Overcast
4:55 PM 69.8 °F 62.6 °F 78% 30.08 in 10.0 mi East 5.8 mph - N/A   Overcast
5:15 PM 69.8 °F 62.6 °F 78% 30.08 in 10.0 mi East 3.5 mph - N/A   Overcast
5:35 PM 69.8 °F 62.6 °F 78% 30.08 in 10.0 mi Calm Calm - N/A   Overcast
5:55 PM 69.8 °F 62.6 °F 78% 30.09 in 10.0 mi ENE 4.6 mph - N/A   Overcast
6:35 PM 68.0 °F 62.6 °F 83% 30.09 in 10.0 mi East 4.6 mph - N/A   Overcast
6:55 PM 68.0 °F 62.6 °F 83% 30.09 in 10.0 mi East 5.8 mph - N/A   Overcast
7:15 PM 68.0 °F 62.6 °F 83% 30.10 in 10.0 mi ENE 4.6 mph - N/A   Overcast
7:35 PM 66.2 °F 62.6 °F 88% 30.10 in 10.0 mi East 3.5 mph - N/A   Overcast
7:55 PM 66.2 °F 62.6 °F 88% 30.09 in 10.0 mi ENE 3.5 mph - N/A   Overcast
8:15 PM 66.2 °F 62.6 °F 88% 30.09 in 10.0 mi NE 4.6 mph - N/A   Overcast
8:35 PM 66.2 °F 64.4 °F 94% 30.10 in 10.0 mi ENE 3.5 mph - N/A   Overcast
8:55 PM 66.2 °F 64.4 °F 94% 30.10 in 10.0 mi East 5.8 mph - N/A   Overcast
9:15 PM 66.2 °F 64.4 °F 94% 30.11 in 10.0 mi East 3.5 mph - N/A   Overcast
9:35 PM 66.2 °F 64.4 °F 94% 30.11 in 10.0 mi East 4.6 mph - N/A   Overcast
9:55 PM 66.2 °F 64.4 °F 94% 30.11 in 10.0 mi East 4.6 mph - N/A   Overcast
10:15 PM 66.2 °F 64.4 °F 94% 30.11 in 10.0 mi East 5.8 mph - N/A   Overcast
10:35 PM 66.2 °F 64.4 °F 94% 30.12 in 10.0 mi East 5.8 mph - N/A   Overcast
10:55 PM 66.2 °F 64.4 °F 94% 30.12 in 10.0 mi East 4.6 mph - N/A   Overcast
11:15 PM 66.2 °F 62.6 °F 88% 30.11 in 10.0 mi East 5.8 mph - N/A   Overcast
11:35 PM 66.2 °F 64.4 °F 94% 30.11 in 10.0 mi East 4.6 mph - N/A   Overcast
11:55 PM 66.2 °F 64.4 °F 94% 30.11 in 6.0 mi ENE 4.6 mph - N/A   Overcast